NKS886 KSAN-KPDX

Flight info

Callsign NKS886
Flight time 1h 46m
Altitude 38000
Route PADRZ2 EHF DNOLD GALLO TMBRS4
Aircraft A319/M-SDE3FGHIRWY/LB1

Departure

Time 2026-05-04 03:03
Airport San Diego International Airport (KSAN)

Arrival

Time 2026-05-04 04:49
Airport Portland International Airport (KPDX)
Time Latitude Longitude Altitude Speed Heading
2026-05-04 02:43 32.73289 -117.19554 21 ft 0 kts 275°
2026-05-04 02:56 32.73288 -117.19527 22 ft 4 kts 264°
2026-05-04 02:56 32.73294 -117.19496 23 ft 4 kts 246°
2026-05-04 02:56 32.73307 -117.19469 25 ft 4 kts 226°
2026-05-04 02:56 32.73328 -117.19450 27 ft 4 kts 205°
2026-05-04 02:57 32.73353 -117.19441 25 ft 4 kts 175°
2026-05-04 02:57 32.73372 -117.19449 25 ft 2 kts 111°
2026-05-04 02:57 32.73373 -117.19451 25 ft 4 kts 109°
2026-05-04 02:58 32.73362 -117.19412 23 ft 11 kts 107°
2026-05-04 02:59 32.73333 -117.19304 20 ft 17 kts 108°
2026-05-04 02:59 32.73294 -117.19154 22 ft 21 kts 107°
2026-05-04 02:59 32.73253 -117.18975 24 ft 24 kts 105°
2026-05-04 02:59 32.73208 -117.18781 27 ft 23 kts 105°
2026-05-04 03:00 32.73164 -117.18589 24 ft 26 kts 107°
2026-05-04 03:00 32.73119 -117.18405 23 ft 20 kts 107°
2026-05-04 03:00 32.73079 -117.18243 22 ft 22 kts 106°
2026-05-04 03:00 32.73038 -117.18075 21 ft 18 kts 107°
2026-05-04 03:01 32.73002 -117.17922 20 ft 19 kts 105°
2026-05-04 03:01 32.72969 -117.17794 20 ft 14 kts 106°
2026-05-04 03:01 32.72951 -117.17711 20 ft 0 kts 100°
2026-05-04 03:02 32.72961 -117.17630 23 ft 21 kts 70°
2026-05-04 03:02 32.73049 -117.17697 21 ft 40 kts 285°
2026-05-04 03:02 32.73186 -117.18266 25 ft 101 kts 285°
2026-05-04 03:02 32.73424 -117.19273 87 ft 145 kts 282°
2026-05-04 03:03 32.73689 -117.20388 737 ft 140 kts 288°
2026-05-04 03:03 32.74165 -117.21397 1346 ft 140 kts 300°
2026-05-04 03:03 32.74708 -117.22372 1867 ft 146 kts 301°
2026-05-04 03:03 32.75314 -117.23457 2164 ft 169 kts 301°
2026-05-04 03:04 32.76004 -117.24701 2510 ft 192 kts 301°
2026-05-04 03:04 32.76774 -117.26099 2933 ft 211 kts 301°
2026-05-04 03:04 32.77619 -117.27632 3482 ft 229 kts 301°
2026-05-04 03:04 32.78494 -117.29222 4245 ft 241 kts 301°
2026-05-04 03:05 32.79437 -117.30947 5014 ft 255 kts 301°
2026-05-04 03:05 32.80465 -117.32733 5974 ft 260 kts 303°
2026-05-04 03:05 32.81551 -117.34446 6873 ft 266 kts 305°
2026-05-04 03:05 32.82699 -117.36197 7763 ft 271 kts 304°
2026-05-04 03:06 32.83872 -117.37972 8649 ft 275 kts 304°
2026-05-04 03:06 32.85064 -117.39785 9520 ft 281 kts 303°
2026-05-04 03:06 32.86273 -117.41634 10345 ft 285 kts 303°
2026-05-04 03:06 32.87494 -117.43516 11105 ft 292 kts 302°
2026-05-04 03:07 32.88777 -117.45517 11384 ft 316 kts 302°
2026-05-04 03:07 32.90140 -117.47657 11806 ft 331 kts 303°
2026-05-04 03:07 32.91545 -117.49855 12518 ft 336 kts 303°
2026-05-04 03:07 32.92975 -117.52076 13256 ft 340 kts 303°
2026-05-04 03:08 32.94423 -117.54318 13982 ft 344 kts 303°
2026-05-04 03:08 32.95895 -117.56596 14664 ft 346 kts 302°
2026-05-04 03:08 32.97351 -117.58856 15370 ft 346 kts 301°
2026-05-04 03:08 32.98817 -117.61132 16102 ft 347 kts 301°
2026-05-04 03:09 33.00282 -117.63418 16828 ft 347 kts 300°
2026-05-04 03:09 33.01739 -117.65701 17529 ft 349 kts 299°
2026-05-04 03:09 33.03215 -117.68016 18229 ft 350 kts 299°
2026-05-04 03:09 33.04687 -117.70323 18836 ft 351 kts 299°
2026-05-04 03:10 33.06215 -117.72613 19427 ft 357 kts 303°
2026-05-04 03:10 33.08052 -117.74669 20011 ft 366 kts 310°
2026-05-04 03:10 33.09997 -117.76645 20601 ft 368 kts 310°
2026-05-04 03:10 33.11954 -117.78632 21178 ft 371 kts 310°
2026-05-04 03:11 33.13926 -117.80635 21752 ft 373 kts 310°
2026-05-04 03:11 33.15905 -117.82646 22319 ft 375 kts 310°
2026-05-04 03:11 33.17898 -117.84675 22877 ft 377 kts 309°
2026-05-04 03:11 33.19898 -117.86713 23429 ft 380 kts 310°
2026-05-04 03:12 33.21934 -117.88745 23901 ft 383 kts 310°
2026-05-04 03:12 33.24003 -117.90761 24350 ft 385 kts 310°
2026-05-04 03:12 33.26090 -117.92776 24810 ft 386 kts 310°
2026-05-04 03:12 33.28180 -117.94792 25271 ft 387 kts 310°
2026-05-04 03:13 33.30272 -117.96818 25726 ft 388 kts 310°
2026-05-04 03:13 33.32371 -117.98854 26176 ft 389 kts 309°
2026-05-04 03:13 33.34468 -118.00898 26618 ft 389 kts 309°
2026-05-04 03:13 33.36565 -118.02953 27057 ft 390 kts 309°
2026-05-04 03:14 33.38667 -118.05017 27527 ft 391 kts 309°
2026-05-04 03:14 33.40777 -118.07093 27908 ft 395 kts 308°
2026-05-04 03:14 33.42898 -118.09176 28314 ft 397 kts 308°
2026-05-04 03:14 33.45042 -118.11277 28725 ft 398 kts 308°
2026-05-04 03:15 33.47191 -118.13381 29138 ft 400 kts 308°
2026-05-04 03:15 33.49345 -118.15494 29539 ft 401 kts 308°
2026-05-04 03:15 33.51501 -118.17611 29931 ft 402 kts 308°
2026-05-04 03:15 33.53675 -118.19747 30274 ft 404 kts 307°
2026-05-04 03:16 33.55847 -118.21883 30570 ft 406 kts 308°
2026-05-04 03:16 33.58213 -118.23858 30879 ft 423 kts 316°
2026-05-04 03:16 33.60896 -118.25467 31141 ft 436 kts 321°
2026-05-04 03:16 33.63663 -118.26986 31417 ft 438 kts 321°
2026-05-04 03:17 33.66439 -118.28505 31712 ft 439 kts 321°
2026-05-04 03:17 33.69216 -118.30021 32130 ft 437 kts 320°
2026-05-04 03:17 33.71972 -118.31531 32585 ft 434 kts 320°
2026-05-04 03:17 33.74717 -118.33018 33036 ft 434 kts 321°
2026-05-04 03:18 33.77528 -118.34384 33505 ft 437 kts 322°
2026-05-04 03:18 33.79414 -118.35217 33860 ft 437 kts 323°
2026-05-04 03:18 33.82290 -118.36407 34341 ft 436 kts 323°
2026-05-04 03:18 33.85158 -118.37559 34751 ft 434 kts 323°
2026-05-04 03:19 33.88014 -118.38719 35076 ft 433 kts 323°
2026-05-04 03:19 33.91778 -118.40294 35473 ft 431 kts 322°
2026-05-04 03:19 33.93679 -118.41111 35682 ft 430 kts 322°
2026-05-04 03:19 33.96488 -118.42340 35996 ft 429 kts 322°
2026-05-04 03:20 33.99295 -118.43577 36354 ft 429 kts 321°
2026-05-04 03:20 34.02095 -118.44808 36702 ft 427 kts 321°
2026-05-04 03:20 34.04875 -118.46027 37042 ft 426 kts 321°
2026-05-04 03:20 34.07660 -118.47244 37348 ft 425 kts 321°
2026-05-04 03:21 34.10448 -118.48461 37634 ft 425 kts 321°
2026-05-04 03:21 34.13225 -118.49672 37879 ft 424 kts 321°
2026-05-04 03:21 34.16002 -118.50883 37993 ft 425 kts 321°
2026-05-04 03:22 34.21554 -118.53301 38008 ft 424 kts 321°
2026-05-04 03:22 34.27077 -118.55717 38008 ft 424 kts 321°
2026-05-04 03:23 34.32639 -118.58159 38003 ft 423 kts 321°
2026-05-04 03:23 34.38183 -118.60593 38006 ft 424 kts 321°
2026-05-04 03:24 34.43743 -118.63048 38016 ft 425 kts 321°
2026-05-04 03:24 34.49298 -118.65488 37998 ft 425 kts 321°
2026-05-04 03:25 34.54844 -118.67933 37991 ft 426 kts 321°
2026-05-04 03:25 34.60427 -118.70394 37986 ft 426 kts 321°
2026-05-04 03:26 34.66008 -118.72858 37992 ft 427 kts 322°
2026-05-04 03:26 34.71606 -118.75339 37967 ft 429 kts 322°
2026-05-04 03:27 34.77209 -118.77824 37945 ft 429 kts 322°
2026-05-04 03:27 34.82823 -118.80318 37948 ft 430 kts 322°
2026-05-04 03:28 34.88444 -118.82818 37940 ft 430 kts 322°
2026-05-04 03:28 34.94077 -118.85326 37936 ft 431 kts 322°
2026-05-04 03:29 34.99706 -118.87830 37940 ft 431 kts 322°
2026-05-04 03:29 35.05345 -118.90346 37950 ft 432 kts 323°
2026-05-04 03:30 35.10992 -118.92876 37922 ft 433 kts 323°
2026-05-04 03:30 35.16660 -118.95417 37922 ft 434 kts 323°
2026-05-04 03:31 35.22338 -118.97966 37965 ft 435 kts 326°
2026-05-04 03:31 35.28046 -119.00536 37917 ft 438 kts 326°
2026-05-04 03:32 35.33747 -119.03100 37910 ft 440 kts 326°
2026-05-04 03:32 35.39543 -119.05712 37914 ft 441 kts 326°
2026-05-04 03:33 35.45316 -119.08311 37919 ft 443 kts 327°
2026-05-04 03:33 35.51089 -119.10853 37922 ft 446 kts 329°
2026-05-04 03:34 35.57053 -119.13122 37929 ft 451 kts 331°
2026-05-04 03:34 35.63077 -119.15290 37974 ft 451 kts 332°
2026-05-04 03:35 35.69080 -119.17516 37973 ft 450 kts 332°
2026-05-04 03:35 35.75061 -119.19795 37968 ft 450 kts 331°
2026-05-04 03:36 35.81035 -119.22091 37992 ft 450 kts 332°
2026-05-04 03:36 35.87011 -119.24375 37971 ft 449 kts 332°
2026-05-04 03:37 35.92975 -119.26654 37968 ft 448 kts 332°
2026-05-04 03:37 35.98940 -119.28930 37961 ft 448 kts 332°
2026-05-04 03:38 36.04897 -119.31212 37983 ft 448 kts 331°
2026-05-04 03:38 36.10849 -119.33501 37958 ft 448 kts 331°
2026-05-04 03:39 36.16801 -119.35787 37949 ft 448 kts 331°
2026-05-04 03:39 36.22750 -119.38085 37972 ft 448 kts 331°
2026-05-04 03:40 36.28691 -119.40391 37956 ft 448 kts 331°
2026-05-04 03:40 36.34646 -119.42691 37945 ft 448 kts 331°
2026-05-04 03:41 36.40591 -119.44978 37986 ft 448 kts 331°
2026-05-04 03:41 36.46557 -119.47288 37934 ft 450 kts 331°
2026-05-04 03:42 36.52577 -119.49629 37917 ft 450 kts 331°
2026-05-04 03:42 36.58544 -119.51952 37907 ft 450 kts 331°
2026-05-04 03:43 36.64495 -119.54275 37930 ft 451 kts 331°
2026-05-04 03:43 36.70498 -119.56614 37913 ft 452 kts 331°
2026-05-04 03:44 36.76511 -119.58966 37909 ft 453 kts 331°
2026-05-04 03:44 36.82533 -119.61322 37910 ft 454 kts 331°
2026-05-04 03:45 36.88561 -119.63681 37908 ft 454 kts 331°
2026-05-04 03:45 36.94589 -119.66053 37911 ft 454 kts 331°
2026-05-04 03:46 37.00609 -119.68430 37939 ft 455 kts 332°
2026-05-04 03:46 37.10827 -119.72460 37921 ft 456 kts 333°
2026-05-04 03:47 37.34948 -119.82017 37933 ft 459 kts 333°
2026-05-04 03:47 37.59367 -119.91754 37967 ft 462 kts 335°
2026-05-04 03:48 37.83963 -120.01646 37966 ft 465 kts 336°
2026-05-04 03:48 38.08682 -120.11629 37983 ft 466 kts 337°
2026-05-04 03:49 38.33412 -120.21710 38011 ft 466 kts 339°
2026-05-04 03:49 38.58284 -120.31904 38004 ft 466 kts 339°
2026-05-04 03:50 38.82902 -120.42090 38034 ft 465 kts 340°
2026-05-04 03:50 39.07506 -120.52323 38051 ft 464 kts 340°
2026-05-04 03:51 39.31801 -120.62508 38050 ft 460 kts 340°
2026-05-04 03:51 39.56008 -120.72760 37975 ft 456 kts 341°
2026-05-04 03:52 39.80115 -120.83002 37992 ft 456 kts 342°
2026-05-04 03:52 40.04201 -120.93328 37985 ft 455 kts 342°
2026-05-04 03:53 40.18300 -120.99428 37989 ft 456 kts 342°
2026-05-04 03:53 40.30380 -121.04658 37958 ft 458 kts 343°
2026-05-04 03:54 40.42505 -121.09921 37966 ft 460 kts 342°
2026-05-04 03:54 40.54705 -121.15029 37974 ft 460 kts 344°
2026-05-04 03:55 40.66929 -121.19990 37973 ft 459 kts 344°
2026-05-04 03:55 40.76888 -121.24126 37981 ft 457 kts 344°
2026-05-04 03:56 40.82936 -121.26644 37971 ft 454 kts 344°
2026-05-04 03:56 40.88950 -121.29148 37961 ft 452 kts 344°
2026-05-04 03:57 40.94938 -121.31641 37957 ft 450 kts 345°
2026-05-04 03:57 41.00908 -121.34124 37952 ft 449 kts 344°
2026-05-04 03:58 41.09818 -121.37843 37938 ft 447 kts 344°
2026-05-04 03:58 41.15753 -121.40337 37938 ft 447 kts 344°
2026-05-04 03:59 41.21688 -121.42833 37939 ft 447 kts 343°
2026-05-04 03:59 41.27613 -121.45326 37930 ft 446 kts 343°
2026-05-04 04:00 41.33527 -121.47822 37937 ft 445 kts 344°
2026-05-04 04:00 41.38432 -121.49899 37940 ft 445 kts 344°
2026-05-04 04:01 41.44331 -121.52387 37944 ft 444 kts 344°
2026-05-04 04:01 41.50208 -121.54876 37932 ft 442 kts 344°
2026-05-04 04:02 41.56058 -121.57373 37929 ft 441 kts 345°
2026-05-04 04:02 41.61900 -121.59858 37927 ft 440 kts 344°
2026-05-04 04:03 41.67734 -121.62340 37912 ft 440 kts 344°
2026-05-04 04:03 41.73563 -121.64835 37914 ft 440 kts 344°
2026-05-04 04:04 41.79386 -121.67333 37907 ft 439 kts 345°
2026-05-04 04:04 41.85208 -121.69827 37908 ft 439 kts 345°
2026-05-04 04:05 41.91026 -121.72312 37926 ft 438 kts 345°
2026-05-04 04:05 41.96831 -121.74810 37933 ft 438 kts 345°
2026-05-04 04:06 42.02634 -121.77327 37940 ft 438 kts 345°
2026-05-04 04:06 42.08443 -121.79839 37947 ft 439 kts 345°
2026-05-04 04:07 42.14257 -121.82355 37947 ft 439 kts 345°
2026-05-04 04:07 42.20071 -121.84871 37904 ft 439 kts 345°
2026-05-04 04:08 42.25843 -121.87376 37898 ft 439 kts 345°
2026-05-04 04:08 42.31659 -121.89908 37897 ft 439 kts 344°
2026-05-04 04:09 42.37474 -121.92448 37914 ft 439 kts 344°
2026-05-04 04:09 42.43287 -121.94984 37917 ft 439 kts 344°
2026-05-04 04:10 42.49097 -121.97528 37905 ft 439 kts 344°
2026-05-04 04:10 42.54902 -122.00073 37916 ft 438 kts 344°
2026-05-04 04:11 42.60701 -122.02629 37924 ft 438 kts 344°
2026-05-04 04:11 42.66498 -122.05181 37912 ft 438 kts 344°
2026-05-04 04:12 42.72283 -122.07732 37934 ft 436 kts 344°
2026-05-04 04:12 42.78048 -122.10287 37940 ft 435 kts 344°
2026-05-04 04:13 42.83807 -122.12766 37887 ft 432 kts 356°
2026-05-04 04:13 42.86783 -122.12287 36568 ft 442 kts 11°
2026-05-04 04:13 42.89760 -122.11958 37015 ft 422 kts 357°
2026-05-04 04:14 42.92617 -122.12934 37031 ft 430 kts 336°
2026-05-04 04:14 42.95181 -122.15043 37030 ft 435 kts 329°
2026-05-04 04:14 43.00262 -122.19583 37304 ft 434 kts 329°
2026-05-04 04:15 43.02883 -122.21591 37635 ft 429 kts 341°
2026-05-04 04:15 43.05683 -122.22952 37886 ft 429 kts 343°
2026-05-04 04:15 43.11340 -122.25596 37919 ft 430 kts 344°
2026-05-04 04:16 43.17015 -122.28241 37914 ft 431 kts 344°
2026-05-04 04:16 43.22680 -122.30901 37914 ft 430 kts 344°
2026-05-04 04:17 43.28306 -122.33568 37849 ft 433 kts 344°
2026-05-04 04:17 43.31193 -122.34939 37571 ft 444 kts 343°
2026-05-04 04:17 43.34134 -122.36335 37289 ft 450 kts 344°
2026-05-04 04:18 43.37105 -122.37745 37011 ft 453 kts 343°
2026-05-04 04:18 43.40085 -122.39166 36733 ft 454 kts 344°
2026-05-04 04:18 43.43067 -122.40594 36469 ft 454 kts 344°
2026-05-04 04:18 43.46057 -122.42029 36208 ft 456 kts 344°
2026-05-04 04:19 43.49045 -122.43458 35939 ft 455 kts 345°
2026-05-04 04:19 43.52034 -122.44882 35695 ft 453 kts 345°
2026-05-04 04:19 43.55010 -122.46298 35431 ft 452 kts 345°
2026-05-04 04:19 43.57977 -122.47714 35170 ft 450 kts 345°
2026-05-04 04:20 43.60934 -122.49131 34926 ft 449 kts 345°
2026-05-04 04:20 43.63879 -122.50546 34674 ft 448 kts 345°
2026-05-04 04:20 43.66824 -122.51961 34431 ft 447 kts 345°
2026-05-04 04:20 43.69760 -122.53371 34183 ft 446 kts 345°
2026-05-04 04:21 43.72681 -122.54779 33951 ft 445 kts 345°
2026-05-04 04:21 43.75603 -122.56192 33682 ft 444 kts 345°
2026-05-04 04:21 43.78510 -122.57601 33389 ft 441 kts 345°
2026-05-04 04:21 43.81401 -122.58998 33117 ft 439 kts 345°
2026-05-04 04:22 43.84275 -122.60390 32843 ft 437 kts 345°
2026-05-04 04:22 43.87136 -122.61778 32577 ft 435 kts 345°
2026-05-04 04:22 43.89989 -122.63161 32314 ft 433 kts 345°
2026-05-04 04:22 43.92824 -122.64533 32046 ft 431 kts 345°
2026-05-04 04:23 43.95641 -122.65896 31791 ft 429 kts 345°
2026-05-04 04:23 43.98455 -122.67265 31534 ft 427 kts 345°
2026-05-04 04:23 44.01259 -122.68630 31270 ft 426 kts 345°
2026-05-04 04:23 44.04048 -122.69987 31021 ft 424 kts 345°
2026-05-04 04:24 44.06821 -122.71340 30769 ft 421 kts 345°
2026-05-04 04:24 44.09569 -122.72686 30305 ft 417 kts 345°
2026-05-04 04:24 44.12305 -122.74012 29743 ft 414 kts 347°
2026-05-04 04:24 44.15099 -122.74875 29183 ft 407 kts 357°
2026-05-04 04:25 44.17893 -122.75029 28677 ft 398 kts
2026-05-04 04:25 44.20635 -122.74753 28171 ft 393 kts
2026-05-04 04:25 44.23351 -122.74480 27663 ft 389 kts
2026-05-04 04:25 44.26035 -122.74217 27184 ft 386 kts
2026-05-04 04:26 44.28664 -122.73961 26717 ft 380 kts
2026-05-04 04:26 44.31319 -122.73706 26270 ft 376 kts
2026-05-04 04:26 44.33888 -122.73459 25816 ft 374 kts
2026-05-04 04:26 44.36515 -122.73205 25381 ft 372 kts
2026-05-04 04:27 44.39051 -122.72954 24957 ft 369 kts
2026-05-04 04:27 44.41639 -122.72695 24533 ft 367 kts
2026-05-04 04:27 44.44145 -122.72444 24121 ft 364 kts
2026-05-04 04:27 44.46698 -122.72191 23682 ft 362 kts
2026-05-04 04:28 44.49176 -122.71947 23234 ft 360 kts
2026-05-04 04:28 44.51665 -122.71700 22775 ft 357 kts
2026-05-04 04:28 44.54126 -122.71459 22344 ft 353 kts
2026-05-04 04:28 44.56559 -122.71219 21908 ft 349 kts
2026-05-04 04:29 44.58975 -122.70979 21451 ft 346 kts
2026-05-04 04:29 44.61369 -122.70739 20990 ft 344 kts
2026-05-04 04:29 44.63746 -122.70495 20530 ft 342 kts
2026-05-04 04:29 44.66113 -122.70253 20067 ft 340 kts
2026-05-04 04:30 44.68498 -122.70015 19621 ft 339 kts
2026-05-04 04:30 44.70815 -122.69786 19157 ft 338 kts
2026-05-04 04:30 44.73182 -122.69550 18692 ft 336 kts
2026-05-04 04:30 44.75484 -122.69317 18235 ft 335 kts
2026-05-04 04:31 44.77809 -122.69078 17718 ft 334 kts
2026-05-04 04:31 44.80150 -122.68838 17226 ft 332 kts
2026-05-04 04:31 44.82451 -122.68603 16787 ft 329 kts
2026-05-04 04:31 44.84704 -122.68377 16500 ft 322 kts
2026-05-04 04:32 44.86898 -122.68161 16075 ft 320 kts
2026-05-04 04:32 44.89111 -122.67942 15621 ft 319 kts
2026-05-04 04:32 44.91318 -122.67723 15180 ft 318 kts
2026-05-04 04:32 44.93505 -122.67503 15007 ft 311 kts
2026-05-04 04:33 44.95654 -122.67284 14863 ft 309 kts
2026-05-04 04:33 44.97794 -122.67068 14705 ft 307 kts
2026-05-04 04:33 44.99925 -122.66852 14556 ft 306 kts
2026-05-04 04:33 45.02039 -122.66636 14354 ft 304 kts
2026-05-04 04:34 45.04147 -122.66421 13793 ft 303 kts
2026-05-04 04:34 45.06246 -122.66206 13108 ft 302 kts
2026-05-04 04:34 45.08338 -122.65993 12459 ft 303 kts
2026-05-04 04:34 45.10446 -122.65780 12021 ft 303 kts
2026-05-04 04:35 45.12542 -122.65567 11580 ft 302 kts
2026-05-04 04:35 45.14627 -122.65357 11226 ft 300 kts
2026-05-04 04:35 45.16716 -122.65148 10809 ft 299 kts
2026-05-04 04:35 45.18797 -122.64934 10405 ft 298 kts
2026-05-04 04:36 45.20873 -122.64718 10011 ft 298 kts
2026-05-04 04:36 45.22928 -122.64506 9608 ft 294 kts
2026-05-04 04:36 45.24934 -122.63945 9196 ft 293 kts 19°
2026-05-04 04:36 45.26741 -122.62688 8643 ft 288 kts 33°
2026-05-04 04:37 45.31726 -122.58198 7223 ft 278 kts 32°
2026-05-04 04:37 45.33366 -122.56725 6789 ft 279 kts 32°
2026-05-04 04:38 45.35010 -122.55248 6358 ft 281 kts 32°
2026-05-04 04:38 45.36646 -122.53779 6160 ft 273 kts 32°
2026-05-04 04:38 45.38222 -122.52363 6013 ft 263 kts 32°
2026-05-04 04:38 45.39745 -122.50986 5839 ft 256 kts 32°
2026-05-04 04:39 45.41233 -122.49644 5763 ft 252 kts 32°
2026-05-04 04:39 45.42656 -122.48192 5625 ft 252 kts 46°
2026-05-04 04:39 45.43490 -122.46031 5471 ft 252 kts 77°
2026-05-04 04:39 45.43431 -122.43576 5307 ft 254 kts 107°
2026-05-04 04:40 45.42630 -122.41338 5165 ft 250 kts 119°
2026-05-04 04:40 45.41789 -122.39229 5049 ft 240 kts 119°
2026-05-04 04:40 45.40788 -122.37385 4924 ft 231 kts 128°
2026-05-04 04:40 45.40115 -122.35412 4801 ft 218 kts 96°
2026-05-04 04:41 45.40324 -122.33356 4584 ft 210 kts 61°
2026-05-04 04:41 45.41314 -122.31911 4283 ft 206 kts 25°
2026-05-04 04:41 45.42707 -122.31543 3972 ft 205 kts 359°
2026-05-04 04:41 45.44133 -122.31667 3693 ft 206 kts 355°
2026-05-04 04:42 45.45555 -122.31869 3411 ft 205 kts 350°
2026-05-04 04:42 45.46801 -122.32784 3139 ft 205 kts 314°
2026-05-04 04:42 45.47553 -122.34504 3003 ft 206 kts 301°
2026-05-04 04:42 45.48561 -122.35877 2998 ft 204 kts 334°
2026-05-04 04:43 45.49778 -122.36908 2990 ft 202 kts 315°
2026-05-04 04:43 45.50382 -122.38599 2992 ft 182 kts 291°
2026-05-04 04:43 45.50909 -122.40165 2769 ft 168 kts 302°
2026-05-04 04:43 45.51443 -122.41520 2567 ft 146 kts 302°
2026-05-04 04:44 45.51918 -122.42726 2393 ft 135 kts 302°
2026-05-04 04:44 45.52370 -122.43873 2227 ft 131 kts 302°
2026-05-04 04:44 45.52813 -122.45000 2059 ft 130 kts 302°
2026-05-04 04:44 45.53253 -122.46120 1896 ft 129 kts 303°
2026-05-04 04:45 45.53692 -122.47236 1709 ft 129 kts 302°
2026-05-04 04:45 45.54128 -122.48353 1568 ft 129 kts 302°
2026-05-04 04:45 45.54565 -122.49468 1419 ft 129 kts 302°
2026-05-04 04:47 45.57007 -122.55726 478 ft 125 kts 299°
2026-05-04 04:47 45.57426 -122.56793 302 ft 123 kts 300°
2026-05-04 04:47 45.57845 -122.57860 161 ft 123 kts 299°
2026-05-04 04:47 45.58244 -122.58909 36 ft 108 kts 300°
2026-05-04 04:48 45.58536 -122.59641 37 ft 65 kts 298°
2026-05-04 04:49 45.58888 -122.60235 33 ft 0 kts 347°
2026-05-04 04:49 45.58893 -122.60236 33 ft 2 kts 350°
2026-05-04 04:49 45.58920 -122.60231 33 ft 5 kts 14°
2026-05-04 04:50 45.58965 -122.60200 32 ft 9 kts 30°
2026-05-04 04:50 45.59036 -122.60143 30 ft 14 kts 28°
2026-05-04 04:50 45.59101 -122.60089 30 ft 10 kts 35°
2026-05-04 04:50 45.59137 -122.59998 30 ft 12 kts 82°
2026-05-04 04:51 45.59150 -122.59910 29 ft 10 kts 63°
2026-05-04 04:51 45.59208 -122.59850 27 ft 12 kts 29°
2026-05-04 04:51 45.59284 -122.59785 28 ft 13 kts 39°
2026-05-04 04:51 45.59309 -122.59665 28 ft 14 kts 103°
2026-05-04 04:52 45.59264 -122.59543 30 ft 14 kts 120°
2026-05-04 04:52 45.59245 -122.59492 30 ft 0 kts 118°
2026-05-04 04:52 45.59243 -122.59489 30 ft 1 kts 119°
2026-05-04 04:52 45.59234 -122.59466 30 ft 3 kts 119°
2026-05-04 04:53 45.59220 -122.59429 30 ft 5 kts 119°
2026-05-04 04:53 45.59208 -122.59418 30 ft 2 kts 164°
2026-05-04 04:53 45.59194 -122.59419 30 ft 1 kts 201°
2026-05-04 04:53 45.59177 -122.59429 30 ft 4 kts 204°
2026-05-04 04:54 45.59160 -122.59444 30 ft 2 kts 216°
2026-05-04 04:54 45.59150 -122.59457 31 ft 1 kts 226°
2026-05-04 04:54 45.59143 -122.59469 31 ft 2 kts 229°
2026-05-04 04:54 45.59142 -122.59471 29 ft 0 kts 229°
2026-05-04 05:00 45.59142 -122.59470 31 ft 0 kts 229°